FW7212 Weather Reports


time (UTC)temp
F
wind
direction
speed
knots
gust
knots
rain 1hr
in
rain 24hr
in
rain mn
in
humidity
%
barometer
mb
20260508111533 43 252 0.9 7.0 0.00 0.00 0.00 73 1013.1
20260508111030 43 241 0.9 7.0 0.00 0.00 0.00 73 1012.9
20260508110541 43 268 0.0 5.2 0.00 0.00 0.00 74 1013.0
20260508110054 43 199 0.9 7.0 0.00 0.00 0.00 74 1012.9
20260508105542 43 208 1.7 7.8 0.00 0.00 0.00 73 1012.9
20260508105053 43 265 0.0 7.8 0.00 0.00 0.00 73 1012.8
20260508104507 43 182 0.0 5.2 0.00 0.00 0.00 73 1012.8
20260508104102 43 250 0.0 4.3 0.00 0.00 0.00 73 1012.7
20260508103508 43 252 0.0 5.2 0.00 0.00 0.00 72 1012.7
20260508103026 44 17 0.9 4.3 0.00 0.00 0.00 72 1012.7
20260508102536 44 216 0.9 6.1 0.00 0.00 0.00 72 1012.6
20260508102030 44 157 1.7 7.0 0.00 0.00 0.00 72 1012.5
20260508101544 44 295 0.9 8.7 0.00 0.00 0.00 72 1012.6
20260508101055 44 160 1.7 6.1 0.00 0.00 0.00 72 1012.5
20260508100538 44 281 0.9 4.3 0.00 0.00 0.00 72 1012.6
20260508100052 44 227 0.9 4.3 0.00 0.00 0.00 72 1012.6
20260508095511 44 245 0.9 5.2 0.00 0.00 0.00 71 1012.6
20260508095004 44 192 1.7 5.2 0.00 0.00 0.00 71 1012.6
20260508094506 44 252 0.0 6.1 0.00 0.00 0.00 71 1012.5
20260508094020 44 210 0.9 6.1 0.00 0.00 0.00 70 1012.5
20260508093531 44 227 0.9 4.3 0.00 0.00 0.00 70 1012.6
20260508093027 44 212 0.0 5.2 0.00 0.00 0.00 70 1012.5
20260508092537 45 217 0.9 4.3 0.00 0.00 0.00 70 1012.6
20260508092050 45 189 0.9 6.1 0.00 0.00 0.00 70 1012.6
20260508091550 45 204 1.7 6.1 0.00 0.00 0.00 69 1012.6
20260508091059 45 254 0.9 4.3 0.00 0.00 0.00 69 1012.7
20260508091003 45 262 0.9 4.3 0.00 0.00 0.00 69 1012.7
20260508090517 45 207 0.0 4.3 0.00 0.00 0.00 69 1012.7
20260508090032 45 124 0.0 2.6 0.00 0.00 0.00 70 1012.6
20260508085523 45 261 0.0 3.5 0.00 0.00 0.00 69 1012.6
20260508085032 45 260 0.9 5.2 0.00 0.00 0.00 68 1012.6
20260508084549 45 231 0.9 5.2 0.00 0.00 0.00 69 1012.6
20260508084040 45 221 0.0 5.2 0.00 0.00 0.00 69 1012.6
20260508083554 45 96 0.9 5.2 0.00 0.00 0.00 68 1012.6
20260508083010 45 189 0.0 4.3 0.00 0.00 0.00 69 1012.7
20260508082517 45 253 0.0 3.5 0.00 0.00 0.00 70 1012.7
20260508082009 46 257 0.0 3.5 0.00 0.00 0.00 70 1012.7
20260508081523 46 210 0.0 3.5 0.00 0.00 0.00 70 1012.7
20260508081030 45 273 0.0 4.3 0.00 0.00 0.00 69 1012.7
20260508080528 45 227 0.0 4.3 0.00 0.00 0.00 69 1012.6
20260508080044 45 193 0.0 4.3 0.00 0.00 0.00 71 1012.7
20260508075553 45 230 0.9 5.2 0.00 0.00 0.00 70 1012.8
20260508075048 45 197 0.0 4.3 0.00 0.00 0.00 71 1012.7
20260508074556 44 159 0.0 4.3 0.00 0.00 0.00 72 1012.8
20260508074006 44 177 0.0 3.5 0.00 0.00 0.00 72 1012.8
20260508073521 44 231 0.0 4.3 0.00 0.00 0.00 74 1012.9
20260508073010 44 247 0.0 4.3 0.00 0.00 0.00 73 1012.9
20260508072527 44 203 0.0 3.5 0.00 0.00 0.00 73 1012.9
20260508072034 44 298 0.9 3.5 0.00 0.00 0.00 73 1012.8
20260508071525 44 248 0.0 1.7 0.00 0.00 0.00 76 1012.9
20260508071034 44 248 0.0 3.5 0.00 0.00 0.00 76 1012.7
20260508070552 44 224 0.0 3.5 0.00 0.00 0.00 74 1012.7
20260508065555 45 248 0.0 4.3 0.00 0.00 0.00 71 1012.7
20260508065007 45 234 0.0 4.3 0.00 0.00 0.00 70 1012.6
20260508064546 45 213 0.0 5.2 0.00 0.00 0.00 68 1012.5
20260508064011 45 249 0.0 6.1 0.00 0.00 0.00 72 1012.5
20260508063527 45 203 0.0 6.1 0.00 0.00 0.00 70 1012.6
20260508063039 45 166 0.0 3.5 0.00 0.00 0.00 67 1012.6
20260508062533 45 132 0.0 3.5 0.00 0.00 0.00 68 1012.6
20260508062040 45 215 0.0 4.3 0.00 0.00 0.00 69 1012.8
20260508061601 45 192 0.9 4.3 0.00 0.00 0.00 71 1012.7
20260508061015 45 215 0.0 7.0 0.00 0.00 0.00 70 1012.7
20260508060555 45 129 0.0 7.0 0.00 0.00 0.00 69 1012.7
20260508060006 45 216 0.0 4.3 0.00 0.00 0.00 69 1012.7
20260508055520 45 214 0.9 4.3 0.00 0.00 0.00 69 1012.8
20260508055006 45 226 0.9 4.3 0.00 0.00 0.00 68 1012.8
20260508054534 45 282 0.9 4.3 0.00 0.00 0.00 70 1012.8
20260508054031 45 196 0.9 5.2 0.00 0.00 0.00 69 1013.0
20260508053535 45 197 0.0 5.2 0.00 0.00 0.00 72 1013.0
20260508053031 45 221 0.9 4.3 0.00 0.00 0.00 71 1013.0
20260508052545 45 206 0.0 4.3 0.00 0.00 0.00 75 1013.1
20260508052057 45 192 0.0 4.3 0.00 0.00 0.00 74 1013.1
20260508052002 45 234 0.0 4.3 0.00 0.00 0.00 70 1013.1
20260508051545 45 240 1.7 4.3 0.00 0.00 0.00 72 1013.1
20260508051052 45 151 0.0 4.3 0.00 0.00 0.00 70 1013.0
20260508050509 45 213 0.0 3.5 0.00 0.00 0.00 75 1013.3
20260508045508 45 161 0.0 5.2 0.00 0.00 0.00 71 1013.3
20260508045023 45 254 0.9 5.2 0.00 0.00 0.00 73 1013.2
20260508044532 45 220 0.0 3.5 0.00 0.00 0.00 71 1013.1
20260508044024 45 169 0.0 1.7 0.00 0.00 0.00 75 1013.1
20260508043534 45 202 0.0 1.7 0.00 0.00 0.00 77 1013.1
20260508043054 46 236 0.0 1.7 0.00 0.00 0.00 74 1013.1
20260508042533 45 210 0.0 3.5 0.00 0.00 0.00 72 1013.0
20260508042047 45 192 0.0 3.5 0.00 0.00 0.00 68 1012.9
20260508041556 45 198 0.9 2.6 0.00 0.00 0.00 75 1013.0
20260508041109 45 242 0.0 1.7 0.00 0.00 0.00 72 1013.0
20260508040600 45 184 0.0 1.7 0.00 0.00 0.00 75 1013.1
20260508040501 45 182 0.0 1.7 0.00 0.00 0.00 73 1013.0
20260508040015 45 215 0.0 1.7 0.00 0.00 0.00 71 1013.0
20260508035526 46 198 0.0 4.3 0.00 0.00 0.00 76 1013.0
20260508035010 46 238 0.0 4.3 0.00 0.00 0.00 73 1013.0
20260508034525 46 199 0.0 3.5 0.00 0.00 0.00 74 1012.9
20260508034034 46 210 0.0 3.5 0.00 0.00 0.00 73 1012.9
20260508033519 46 201 0.9 3.5 0.00 0.00 0.00 66 1012.7
20260508033035 46 219 0.9 3.5 0.00 0.00 0.00 70 1012.9
20260508032546 46 205 0.0 1.7 0.00 0.00 0.00 69 1013.0
20260508032059 46 217 0.0 1.7 0.00 0.00 0.00 72 1013.0
20260508031553 46 232 0.0 1.7 0.00 0.00 0.00 73 1013.0
20260508031005 47 233 0.0 1.7 0.00 0.00 0.00 72 1013.0
20260508030517 47 250 0.0 0.9 0.00 0.00 0.00 71 1013.0
20260508030006 47 252 0.0 0.0 0.00 0.00 0.00 71 1013.0
20260508025517 47 252 0.0 0.9 0.00 0.00 0.00 65 1013.0
20260508025033 47 252 0.0 1.7 0.00 0.00 0.00 63 1013.0
20260508024534 48 252 0.0 1.7 0.00 0.00 0.00 63 1013.0
20260508024034 48 250 0.0 0.9 0.00 0.00 0.00 62 1013.0
20260508023545 48 250 0.0 3.5 0.00 0.00 0.00 62 1013.1
20260508023059 48 202 0.0 3.5 0.00 0.00 0.00 61 1013.0
20260508023002 48 202 0.0 0.9 0.00 0.00 0.00 62 1013.0
20260508022547 48 234 0.0 0.9 0.00 0.00 0.00 63 1013.0
20260508022009 48 234 0.0 0.9 0.00 0.00 0.00 62 1013.0
20260508021519 48 234 0.0 0.9 0.00 0.00 0.00 64 1013.0
20260508021013 48 248 0.0 0.9 0.00 0.00 0.00 62 1012.9
20260508020521 49 248 0.0 1.7 0.00 0.00 0.00 60 1012.9
20260508020034 49 248 0.0 1.7 0.00 0.00 0.00 58 1012.9
20260508015548 49 260 0.0 0.9 0.00 0.00 0.00 58 1012.9
20260508015038 49 260 0.0 0.9 0.00 0.00 0.00 59 1012.8
20260508014552 49 260 0.0 0.9 0.00 0.00 0.00 59 1012.9
20260508014006 50 260 0.0 1.7 0.00 0.00 0.00 57 1012.8
20260508013555 50 265 0.0 1.7 0.00 0.00 0.00 56 1012.8
20260508013008 50 311 0.0 1.7 0.00 0.00 0.00 55 1012.7
20260508012523 50 311 0.0 0.9 0.00 0.00 0.00 54 1012.6
20260508012024 51 311 0.0 0.0 0.00 0.00 0.00 53 1012.4
20260508011535 51 311 0.0 0.0 0.00 0.00 0.00 53 1012.3
20260508011042 52 311 0.0 0.0 0.00 0.00 0.00 54 1012.3
20260508010553 52 311 0.0 0.0 0.00 0.00 0.00 54 1012.3
20260508010024 52 311 0.0 0.0 0.00 0.00 0.00 54 1012.2
20260508005528 53 311 0.0 0.9 0.00 0.00 0.00 51 1012.1
20260508005030 53 311 0.0 0.9 0.00 0.00 0.00 52 1012.2
20260508004542 53 311 0.0 0.9 0.00 0.00 0.00 52 1012.1
20260508004052 54 311 0.0 0.9 0.00 0.00 0.00 52 1012.0
20260508003507 54 311 0.0 3.5 0.00 0.00 0.00 51 1012.1
20260508003018 54 311 0.0 3.5 0.00 0.00 0.00 48 1012.1
20260508002533 54 282 0.9 3.5 0.00 0.00 0.00 50 1012.1
20260508002045 54 284 0.0 4.3 0.00 0.00 0.00 50 1012.0
20260508001556 55 309 0.0 4.3 0.00 0.00 0.00 49 1012.1
20260508001007 55 277 0.9 4.3 0.00 0.00 0.00 49 1012.0
20260508000528 55 284 1.7 4.3 0.00 0.00 0.00 48 1012.0
20260508000035 55 286 0.9 4.3 0.00 0.00 0.00 48 1011.9
20260507235553 56 287 0.9 4.3 0.00 0.00 0.00 47 1011.9
20260507235059 56 291 0.9 2.6 0.00 0.00 0.00 48 1011.7
20260507235002 56 298 0.0 1.7 0.00 0.00 0.00 48 1011.8
20260507234523 56 270 0.0 5.2 0.00 0.00 0.00 48 1011.8
20260507234025 56 270 2.6 7.0 0.00 0.00 0.00 45 1011.8
20260507233542 56 329 2.6 7.0 0.00 0.00 0.00 45 1011.7
20260507233053 57 262 3.5 7.0 0.00 0.00 0.00 44 1011.7
20260507232510 57 286 2.6 8.7 0.00 0.00 0.00 45 1011.7
20260507232021 57 284 3.5 8.7 0.00 0.00 0.00 46 1011.7
20260507231542 58 275 1.7 7.0 0.00 0.00 0.00 45 1011.8
20260507231045 58 318 1.7 7.8 0.00 0.00 0.00 46 1011.7
20260507230559 58 284 4.3 7.8 0.00 0.00 0.00 45 1011.8
20260507230501 58 291 1.7 7.8 0.00 0.00 0.00 44 1011.8
20260507230018 58 331 2.6 7.8 0.00 0.00 0.00 46 1011.7
20260507225527 58 298 2.6 11.3 0.00 0.00 0.00 47 1011.8
20260507225042 58 265 3.5 11.3 0.00 0.00 0.00 45 1011.7
20260507224552 59 281 3.5 7.8 0.00 0.00 0.00 44 1011.6
20260507224007 59 319 2.6 11.3 0.00 0.00 0.00 45 1011.6
20260507223520 60 273 7.0 11.3 0.00 0.00 0.00 42 1011.7
20260507223032 60 347 4.3 11.3 0.00 0.00 0.00 42 1011.7
20260507222541 61 322 2.6 9.6 0.00 0.00 0.00 43 1011.7
20260507222055 60 309 2.6 11.3 0.00 0.00 0.00 46 1011.5
20260507221507 60 333 4.3 9.6 0.00 0.00 0.00 43 1011.7
20260507221022 60 309 2.6 7.8 0.00 0.00 0.00 47 1011.5
20260507220534 60 309 2.6 10.4 0.00 0.00 0.00 45 1011.5
20260507220046 60 335 4.3 10.4 0.00 0.00 0.00 44 1011.4
20260507215555 60 340 2.6 9.6 0.00 0.00 0.00 45 1011.3
20260507215014 61 306 3.5 13.9 0.00 0.00 0.00 45 1011.0
20260507214528 61 291 6.1 16.5 0.00 0.00 0.00 41 1011.0
20260507214039 62 327 5.2 16.5 0.00 0.00 0.00 40 1011.0
20260507213549 62 307 2.6 8.7 0.00 0.00 0.00 42 1010.9
20260507213006 62 323 4.3 10.4 0.00 0.00 0.00 41 1010.8
20260507212516 63 309 3.5 12.2 0.00 0.00 0.00 41 1010.6
20260507212035 63 261 4.3 12.2 0.00 0.00 0.00 39 1010.5
20260507211550 63 275 4.3 10.4 0.00 0.00 0.00 39 1010.5
20260507211055 63 331 4.3 8.7 0.00 0.00 0.00 40 1010.5
20260507210514 63 295 1.7 8.7 0.00 0.00 0.00 43 1010.5
20260507210023 63 318 3.5 15.6 0.00 0.00 0.00 40 1010.5
20260507205538 63 346 6.1 15.6 0.00 0.00 0.00 41 1010.5
20260507205048 63 286 4.3 11.3 0.00 0.00 0.00 38 1010.4
20260507204504 62 322 4.3 9.6 0.00 0.00 0.00 39 1010.4
20260507204013 62 329 3.5 9.6 0.00 0.00 0.00 40 1010.5
20260507203527 63 355 4.3 9.6 0.00 0.00 0.00 39 1010.5
20260507203037 62 303 5.2 10.4 0.00 0.00 0.00 39 1010.7
20260507202554 62 194 3.5 13.0 0.00 0.00 0.00 40 1010.4
20260507202006 62 198 2.6 17.4 0.00 0.00 0.00 38 1010.6
20260507201518 62 319 6.1 17.4 0.00 0.00 0.00 36 1010.6
20260507201029 62 286 6.1 12.2 0.00 0.00 0.00 39 1010.7
20260507200548 62 305 4.3 8.7 0.00 0.00 0.00 40 1010.4
20260507200056 62 303 4.3 11.3 0.00 0.00 0.00 36 1010.6
20260507195512 63 225 4.3 16.5 0.00 0.00 0.00 37 1010.6
20260507195024 63 267 7.8 16.5 0.00 0.00 0.00 37 1010.5
20260507194538 62 302 5.2 8.7 0.00 0.00 0.00 41 1010.6
20260507194045 62 235 2.6 18.2 0.00 0.00 0.00 42 1010.6
20260507193559 62 312 5.2 18.2 0.00 0.00 0.00 43 1010.8
20260507193502 62 217 5.2 11.3 0.00 0.00 0.00 40 1010.8
20260507193018 62 262 3.5 11.3 0.00 0.00 0.00 40 1010.7
20260507192527 62 263 2.6 10.4 0.00 0.00 0.00 41 1011.0
20260507192037 62 277 3.5 10.4 0.00 0.00 0.00 43 1010.7
20260507191551 62 330 5.2 10.4 0.00 0.00 0.00 41 1010.8
20260507191008 62 279 3.5 13.0 0.00 0.00 0.00 41 1010.9
20260507190522 63 307 4.3 11.3 0.00 0.00 0.00 41 1010.9
20260507190037 63 279 4.3 7.8 0.00 0.00 0.00 42 1011.0
20260507185543 63 315 3.5 9.6 0.00 0.00 0.00 40 1011.1
20260507185058 62 254 0.9 10.4 0.00 0.00 0.00 41 1011.0
20260507184509 62 282 3.5 15.6 0.00 0.00 0.00 43 1011.1
20260507184027 62 270 5.2 16.5 0.00 0.00 0.00 38 1011.1
20260507183535 62 238 8.7 16.5 0.00 0.00 0.00 37 1011.0
20260507183049 62 271 4.3 15.6 0.00 0.00 0.00 39 1010.9
20260507182559 62 317 2.6 12.2 0.00 0.00 0.00 42 1010.9
20260507182502 62 344 3.5 12.2 0.00 0.00 0.00 40 1010.9
20260507182015 62 348 7.0 13.9 0.00 0.00 0.00 42 1011.2
20260507181527 62 298 3.5 13.9 0.00 0.00 0.00 42 1011.1
20260507181041 62 271 6.1 12.2 0.00 0.00 0.00 41 1011.0
20260507180555 62 269 6.1 11.3 0.00 0.00 0.00 43 1011.1
20260507180007 62 280 4.3 9.6 0.00 0.00 0.00 42 1011.2
20260507175522 61 265 5.2 13.9 0.00 0.00 0.00 42 1011.2
20260507175033 61 269 7.8 13.9 0.00 0.00 0.00 42 1011.4
20260507174604 61 225 5.2 13.0 0.00 0.00 0.00 42 1011.4
20260507174055 62 323 3.5 12.2 0.00 0.00 0.00 44 1011.3
20260507173512 62 286 4.3 13.9 0.00 0.00 0.00 42 1011.4
20260507173024 61 248 3.5 13.0 0.00 0.00 0.00 43 1011.4
20260507172531 61 211 3.5 11.3 0.00 0.00 0.00 44 1011.5
20260507172045 61 240 3.5 11.3 0.00 0.00 0.00 44 1011.5
20260507171609 61 294 4.3 10.4 0.00 0.00 0.00 42 1011.5
20260507171501 61 284 4.3 10.4 0.00 0.00 0.00 44 1011.5
20260507171011 61 343 4.3 9.6 0.00 0.00 0.00 45 1011.6
20260507170525 61 295 3.5 10.4 0.00 0.00 0.00 44 1011.5
20260507170035 61 242 5.2 9.6 0.00 0.00 0.00 44 1011.6
20260507165550 61 323 4.3 9.6 0.00 0.00 0.00 41 1011.6
20260507165059 61 281 3.5 9.6 0.00 0.00 0.00 45 1011.8
20260507165002 61 301 5.2 9.6 0.00 0.00 0.00 46 1011.9
20260507164516 61 319 3.5 12.2 0.00 0.00 0.00 42 1011.8
20260507164025 61 317 6.1 12.2 0.00 0.00 0.00 42 1011.8
20260507163540 61 314 1.7 12.2 0.00 0.00 0.00 44 1011.8
20260507163051 60 303 4.3 15.6 0.00 0.00 0.00 45 1011.8
20260507162508 60 184 2.6 13.0 0.00 0.00 0.00 46 1011.8
20260507162018 60 220 2.6 13.0 0.00 0.00 0.00 45 1011.9
20260507161535 60 256 5.2 13.0 0.00 0.00 0.00 46 1012.0
20260507161041 60 285 2.6 7.0 0.00 0.00 0.00 43 1011.8
20260507160555 60 315 3.5 7.0 0.00 0.00 0.00 46 1011.9
20260507160013 60 306 2.6 9.6 0.00 0.00 0.00 47 1011.9
20260507155525 60 325 3.5 9.6 0.00 0.00 0.00 45 1011.9
20260507155035 60 321 3.5 7.8 0.00 0.00 0.00 47 1011.9
20260507154549 60 279 3.5 7.0 0.00 0.00 0.00 44 1011.9
20260507154059 59 285 1.7 6.1 0.00 0.00 0.00 47 1011.8
20260507154001 59 280 2.6 6.1 0.00 0.00 0.00 47 1011.9
20260507153515 59 302 3.5 8.7 0.00 0.00 0.00 45 1012.0
20260507153027 59 281 1.7 9.6 0.00 0.00 0.00 42 1011.9
20260507152541 59 267 4.3 9.6 0.00 0.00 0.00 48 1012.0
20260507152052 58 240 3.5 11.3 0.00 0.00 0.00 48 1011.9
20260507151508 58 221 4.3 11.3 0.00 0.00 0.00 46 1012.0
20260507151019 58 5 3.5 11.3 0.00 0.00 0.00 49 1012.0
20260507150533 58 246 2.6 11.3 0.00 0.00 0.00 47 1012.0
20260507150046 58 281 4.3 15.6 0.00 0.00 0.00 47 1012.0
20260507145555 58 287 4.3 15.6 0.00 0.00 0.00 47 1012.2
20260507145016 58 278 3.5 10.4 0.00 0.00 0.00 44 1012.2
20260507144521 58 292 3.5 9.6 0.00 0.00 0.00 47 1012.3
20260507144036 58 234 1.7 6.1 0.00 0.00 0.00 53 1012.4
20260507143545 57 323 1.7 8.7 0.00 0.00 0.00 53 1012.4
20260507143118 57 314 0.9 8.7 0.00 0.00 0.00 55 1012.3
20260507143002 57 305 1.7 8.7 0.00 0.00 0.00 56 1012.4
20260507142511 56 297 1.7 6.1 0.00 0.00 0.00 56 1012.4
20260507142029 56 194 1.7 6.1 0.00 0.00 0.00 58 1012.4
20260507141537 56 294 2.6 8.7 0.00 0.00 0.00 57 1012.4
20260507141049 55 284 3.5 9.6 0.00 0.00 0.00 56 1012.6
20260507140600 55 336 4.3 9.6 0.00 0.00 0.00 56 1012.6
20260507140500 55 261 4.3 7.8 0.00 0.00 0.00 60 1012.7
20260507140031 55 294 2.6 7.8 0.00 0.00 0.00 58 1012.6
20260507135525 54 260 2.6 7.0 0.00 0.00 0.00 63 1012.7
20260507135039 54 231 2.6 5.2 0.00 0.00 0.00 66 1012.9
20260507134549 53 283 0.9 4.3 0.00 0.00 0.00 70 1012.8
20260507134005 52 182 1.7 4.3 0.00 0.00 0.00 70 1012.9
20260507133516 51 270 0.0 4.3 0.00 0.00 0.00 73 1012.9
20260507133033 50 236 0.9 6.1 0.00 0.00 0.00 74 1012.9
20260507132537 49 270 0.0 5.2 0.00 0.00 0.00 77 1012.9
20260507132047 48 247 0.9 5.2 0.00 0.00 0.00 79 1013.0
20260507131621 47 265 1.7 5.2 0.00 0.00 0.00 82 1013.1
20260507131505 46 247 1.7 5.2 0.00 0.00 0.00 84 1013.1
20260507131017 46 218 0.9 3.5 0.00 0.00 0.00 85 1013.1
20260507130514 45 226 0.0 3.5 0.00 0.00 0.00 86 1013.0
20260507130024 44 272 0.0 3.5 0.00 0.02 0.00 87 1013.0
20260507125539 44 238 0.9 3.5 0.00 0.02 0.00 87 1012.9
20260507125028 44 275 0.9 2.6 0.00 0.02 0.00 88 1012.9
20260507124552 43 255 0.9 4.3 0.00 0.02 0.00 87 1012.9
20260507124053 43 259 0.9 4.3 0.00 0.02 0.00 89 1012.9
20260507123607 43 240 0.9 4.3 0.00 0.02 0.00 89 1013.1
20260507123101 42 265 0.0 4.3 0.00 0.02 0.00 90 1013.1
20260507122517 42 258 1.7 3.5 0.00 0.02 0.00 90 1013.1
20260507122019 42 268 0.9 3.5 0.00 0.02 0.00 92 1012.9
20260507121557 41 258 0.9 3.5 0.00 0.02 0.00 92 1012.9
20260507121003 41 268 0.9 3.5 0.00 0.02 0.00 93 1012.9
20260507120553 41 277 0.0 4.3 0.00 0.02 0.00 93 1013.0
20260507120019 40 248 0.9 4.3 0.00 0.03 0.00 93 1012.9
20260507115524 40 256 0.0 3.5 0.00 0.03 0.00 93 1013.0
20260507115032 40 268 0.0 3.5 0.00 0.03 0.00 93 1012.8
20260507114527 40 252 0.0 1.7 0.00 0.03 0.00 93 1012.8
20260507114046 40 288 0.0 1.7 0.00 0.03 0.00 93 1012.7
20260507113554 39 288 0.0 1.7 0.00 0.03 0.00 93 1012.7
20260507113134 39 288 0.0 0.9 0.00 0.03 0.00 93 1012.7
20260507112555 39 288 0.0 1.7 0.00 0.03 0.00 92 1012.6
20260507112008 39 288 0.0 1.7 0.00 0.03 0.00 92 1012.6